STARLINK-35908, 66639

Orbit data source: Space-Track

STARLINK-35908, 66639 is a payload satellite owned by SpaceX/Seattle (US) in LEO that was launched on Sun, 23 Nov 2025 UTC via an FALCON 9 launch vehicle from the Air Force Western Test Range (AFWTR). Payload-class satellites include a variety of spacecraft equipped with specific instruments for various scientific and technological missions. These include communications satellites like Starlink; space stations such as the ISS; scientific satellites like the Hubble; Earth observation satellites from companies like Planet Labs, Umbra, and HawkEye 360; GPS; miniature CubeSats for education and research; and military/defense satellites.

Loading next visibility...
Identifier
66639, 2025-271Y
Orbit
LEO
Country
Flag of USUS
Related business
Manufacturer
SpaceX/Seattle
Mission
Operational Commercial Communications
Bus & Motor
STARLINK V2MO, Unknown motor
Mass
575 kg wet, ~530 kg dry
Launch date (UTC)
2025-11-23 (5 months ago)
Launch vehicle
FALCON 9
Launch site
Air Force Western Test Range (AFWTR)
Object type
Payload
Rocket body
Debris
Shape & HBR
Box + 2 Pan, 17.7 m
Radar Cross Section
36.964 m²

Expand to show TLE details & history
Last TLE update: 7 hours ago

TLE from 7 hours ago
0 STARLINK-35908
1 66639U 25271Y   26128.24377292  .00020408  00000-0  69856-3 0  9993
2 66639  53.1586 223.3805 0001248 104.3298 255.7841 15.30232829 26684
Epoch: 2026-05-08T05:51Z
TLE epoch observation values (Epoch: 2026-05-08T05:51:01.980Z)
Latitude
-0.00004°
Longitude
-90.45613°
Altitude
476.227 km
Speed
7.629 km/s
True Right ascension
14h 53m 31s
True Declination
0° 00' 00"
Sunlit
Object was in full shadow at epoch
Visualization orbit readout
Latitude
Unknown
Longitude
Unknown
Altitude
Unknown
Speed
Unknown
Apparent Right ascension
Unknown
Apparent Declination
Unknown
Sunlit
N/A
Visualization observer readout
Local Sidereal Time
20:51:33
Azimuth
Unknown
Elevation
Unknown
Doppler factor
Unknown
Orbital elements
Apogee altitude
476.229 km
Perigee altitude
474.518 km
Semi-major axis
6,853.511 km
Eccentricity
0.00012
Inclination
53.1586°
RAAN
223.3805°
Arg. of periapsis
104.3298°
True anomaly
255.77024°
Mean anomaly
255.7841°
Eccentric anomaly
255.77717°
Mean motion
3.82537 °/min
Orbital period
94.11 mins
BSTAR
0.00069856
Loading maneuver chart data...
Computing Atmospheric mass density...
Loading historical data...
Loading historical data...
Loading historical data...
Loading historical data...
Loading historical data...
Loading historical data...
Loading historical data...

Documentation

Showing up to 5 results
|